Location: Home
(51.5204°N, 2.5456°W)
Time: 10:23:37
(UTC+00:00)

N. Korean satellite - Pass Details

Date: 22 October 2019
Orbit: 456 x 506 km, 97.2° (Epoch: 12 November)

Event Time Altitude Azimuth Distance (km) Brightness Sun altitude
Rises 06:28:35 0° 23° (NNE) 2,561 10.5 -12.6°
Reaches altitude 10° 06:30:53 10° 36° (NE) 1,684 9.8 -12.3°
Maximum altitude 06:33:59 26° 95° (E) 1,002 9.1 -11.8°
Drops below altitude 10° 06:37:05 10° 153° (SSE) 1,694 9.7 -11.3°
Sets 06:39:25 0° 166° (SSE) 2,579 10.5 -10.9°
